GW5874 Weather Reports


time (UTC)temp
F
wind
direction
speed
knots
gust
knots
rain 1hr
in
rain 24hr
in
rain mn
in
humidity
%
barometer
mb
20260903072327 73 240 0.0 0.0 0.00 0.00 0.00 84 1014.9
20260903071824 73 238 0.0 0.0 0.00 0.00 0.00 84 1014.9
20260903071319 73 257 0.0 0.0 0.00 0.00 0.00 83 1015.0
20260903070814 74 273 0.0 0.0 0.00 0.00 0.00 83 1015.0
20260903070309 73 275 0.0 0.0 0.00 0.00 0.00 83 1014.9
20260903065804 73 264 0.0 0.0 0.00 0.00 0.00 83 1014.9
20260903065306 73 263 0.0 0.0 0.00 0.00 0.00 84 1014.7
20260903064802 73 266 0.0 0.0 0.00 0.00 0.00 85 1014.8
20260903064258 73 266 0.0 0.0 0.00 0.00 0.00 85 1014.9
20260903063754 73 246 0.0 0.0 0.00 0.00 0.00 85 1015.0
20260903063249 73 266 0.0 0.0 0.00 0.00 0.00 85 1014.8
20260903062745 73 276 0.0 0.0 0.00 0.00 0.00 85 1014.8
20260903062244 73 275 0.0 0.0 0.00 0.00 0.00 85 1015.0
20260903061741 73 266 0.0 0.0 0.00 0.00 0.00 85 1014.8
20260903061239 73 294 0.0 0.0 0.00 0.00 0.00 85 1014.9
20260903060736 73 271 0.0 0.0 0.00 0.00 0.00 84 1014.8
20260903060235 73 267 0.0 0.0 0.00 0.00 0.00 83 1015.0
20260903055733 74 262 0.0 0.0 0.00 0.00 0.00 84 1014.9
20260903055231 73 248 0.0 0.0 0.00 0.00 0.00 84 1014.6
20260903054726 73 262 0.0 0.0 0.00 0.00 0.00 84 1015.0
20260903054221 73 256 0.0 0.0 0.00 0.00 0.00 84 1014.6
20260903053718 73 250 0.0 0.0 0.00 0.00 0.00 84 1014.7
20260903053213 74 254 0.0 0.0 0.00 0.00 0.00 83 1014.6
20260903052709 74 251 0.0 0.0 0.00 0.00 0.00 83 1014.9
20260903052204 74 279 0.0 0.0 0.00 0.00 0.00 83 1014.7
20260903051705 74 263 0.0 0.0 0.00 0.00 0.00 83 1014.8
20260903051200 74 272 0.0 0.0 0.00 0.00 0.00 82 1014.9
20260903050656 74 268 0.0 0.0 0.00 0.00 0.00 82 1014.8
20260903050154 74 268 0.0 0.0 0.00 0.00 0.00 81 1014.8
20260903045649 75 268 0.0 0.0 0.00 0.00 0.00 80 1014.8
20260903045146 75 277 0.0 0.0 0.00 0.00 0.00 80 1014.6
20260903044642 75 284 0.0 0.0 0.00 0.00 0.00 80 1014.7
20260903044137 75 264 0.0 0.0 0.00 0.00 0.00 79 1014.6
20260903043634 75 282 0.0 0.0 0.00 0.00 0.00 79 1014.6
20260903043133 75 282 0.0 0.0 0.00 0.00 0.00 79 1014.6
20260903042632 75 269 0.0 0.0 0.00 0.00 0.00 79 1014.8
20260903042127 75 265 0.0 0.0 0.00 0.00 0.00 79 1014.5
20260903041624 75 302 0.0 0.0 0.00 0.00 0.00 78 1014.5
20260903041120 75 243 0.0 0.0 0.00 0.00 0.00 78 1014.5
20260903040618 75 271 0.0 0.0 0.00 0.00 0.00 78 1014.8
20260903040115 75 266 0.0 0.0 0.00 0.00 0.00 78 1014.7
20260903035610 76 256 0.0 0.0 0.00 0.00 0.00 77 1014.8
20260903035106 76 272 0.0 0.0 0.00 0.00 0.00 77 1014.6
20260903034600 76 252 0.0 0.0 0.00 0.00 0.00 77 1014.5
20260903034056 76 269 0.0 0.0 0.00 0.00 0.00 76 1014.9
20260903033551 76 264 0.0 0.0 0.00 0.00 0.00 76 1014.7
20260903033046 76 269 0.0 0.0 0.00 0.00 0.00 75 1014.6
20260903032541 77 247 0.0 0.0 0.00 0.00 0.00 75 1014.6
20260903032036 77 247 0.0 0.0 0.00 0.00 0.00 74 1014.5
20260903031536 77 265 0.0 0.0 0.00 0.00 0.00 74 1014.6
20260903031031 77 270 0.0 0.0 0.00 0.00 0.00 73 1014.6
20260903030527 77 262 0.0 0.0 0.00 0.00 0.00 73 1014.6
20260903030023 78 249 0.0 0.0 0.00 0.00 0.00 73 1014.5
20260903025518 78 264 0.0 0.0 0.00 0.00 0.00 72 1014.5
20260903025014 78 267 0.0 0.0 0.00 0.00 0.00 72 1014.4
20260903024508 78 237 0.0 0.0 0.00 0.00 0.00 72 1014.4
20260903024007 78 292 0.0 0.0 0.00 0.00 0.00 71 1014.3
20260903023503 79 244 0.0 0.0 0.00 0.00 0.00 70 1014.2
20260903022958 79 267 0.0 0.0 0.00 0.00 0.00 71 1014.2
20260903022457 79 229 0.0 0.0 0.00 0.00 0.00 70 1014.1
20260903021955 79 255 0.0 0.0 0.00 0.00 0.00 69 1014.0
20260903021451 79 248 0.0 0.0 0.00 0.00 0.00 69 1014.2
20260903020946 79 268 0.0 0.0 0.00 0.00 0.00 68 1014.0
20260903020442 80 264 0.0 0.0 0.00 0.00 0.00 68 1013.9
20260903015936 80 235 0.0 0.0 0.00 0.00 0.00 69 1013.8
20260903015432 80 278 0.0 0.0 0.00 0.00 0.00 68 1013.7
20260903014927 80 258 0.0 0.0 0.00 0.00 0.00 67 1013.5
20260903014426 81 257 0.0 0.0 0.00 0.00 0.00 67 1013.6
20260903013921 81 273 0.0 0.0 0.00 0.00 0.00 66 1013.6
20260903013421 81 273 0.0 0.0 0.00 0.00 0.00 64 1013.3
20260903012921 82 246 0.0 0.0 0.00 0.00 0.00 64 1013.3
20260903012420 82 267 0.0 0.0 0.00 0.00 0.00 63 1013.4
20260903011919 83 282 0.0 0.0 0.00 0.00 0.00 62 1013.1
20260903011414 83 285 0.0 0.0 0.00 0.00 0.00 61 1013.2
20260903010909 84 264 0.0 0.0 0.00 0.00 0.00 59 1013.1
20260903010404 84 256 0.0 0.0 0.00 0.00 0.00 59 1013.1
20260903005902 85 230 0.0 0.0 0.00 0.00 0.00 59 1013.2
20260903005357 86 222 0.0 0.0 0.00 0.00 0.00 57 1013.2
20260903004854 87 218 0.0 0.0 0.00 0.00 0.00 54 1013.1
20260903004349 88 197 0.9 0.9 0.00 0.00 0.00 52 1013.0
20260903003844 89 222 0.0 0.0 0.00 0.00 0.00 50 1013.0
20260903003344 91 235 0.0 0.9 0.00 0.00 0.00 47 1013.1
20260903002844 91 291 0.9 0.9 0.00 0.00 0.00 44 1013.0
20260903002339 93 243 0.0 0.0 0.00 0.00 0.00 43 1013.1
20260903001834 93 281 0.0 0.0 0.00 0.00 0.00 42 1012.8
20260903001329 94 237 0.0 0.0 0.00 0.00 0.00 42 1013.0
20260903000829 94 198 2.6 3.5 0.00 0.00 0.00 40 1013.0
20260903000325 95 245 0.9 0.9 0.00 0.00 0.00 39 1013.0
20260902235821 96 166 0.0 0.9 0.00 0.00 0.00 39 1012.8
20260902235317 96 259 0.9 0.9 0.00 0.00 0.00 38 1012.8
20260902234811 96 95 1.7 4.3 0.00 0.00 0.00 37 1012.8
20260902234311 96 225 0.9 2.6 0.00 0.00 0.00 38 1013.0
20260902233810 96 226 1.7 3.5 0.00 0.00 0.00 37 1013.0
20260902233310 97 213 2.6 3.5 0.00 0.00 0.00 36 1013.0
20260902232809 97 194 1.7 2.6 0.00 0.00 0.00 36 1013.0
20260902232309 97 90 3.5 4.3 0.00 0.00 0.00 36 1013.2
20260902231808 98 226 1.7 2.6 0.00 0.00 0.00 37 1013.1
20260902231303 99 207 1.7 2.6 0.00 0.00 0.00 36 1013.2
20260902230759 98 245 1.7 2.6 0.00 0.00 0.00 34 1013.1
20260902230257 98 216 1.7 2.6 0.00 0.00 0.00 35 1013.2
20260902225752 98 243 0.9 0.9 0.00 0.00 0.00 36 1013.1
20260902225247 99 186 2.6 4.3 0.00 0.00 0.00 34 1013.3
20260902224746 99 195 4.3 4.3 0.00 0.00 0.00 34 1013.2
20260902224242 100 186 4.3 4.3 0.00 0.00 0.00 36 1013.3
20260902223738 100 260 0.9 0.9 0.00 0.00 0.00 33 1013.3
20260902223237 100 217 1.7 2.6 0.00 0.00 0.00 34 1013.4
20260902222737 99 253 1.7 2.6 0.00 0.00 0.00 34 1013.3
20260902222236 99 245 1.7 3.5 0.00 0.00 0.00 33 1013.4
20260902221731 98 235 1.7 2.6 0.00 0.00 0.00 33 1013.5
20260902221230 98 168 5.2 6.1 0.00 0.00 0.00 33 1013.5
20260902220726 100 241 4.3 4.3 0.00 0.00 0.00 32 1013.5
20260902220225 102 185 2.6 3.5 0.00 0.00 0.00 32 1013.5
20260902215721 103 237 1.7 2.6 0.00 0.00 0.00 31 1013.5
20260902215216 103 299 1.7 2.6 0.00 0.00 0.00 31 1013.5
20260902214712 103 231 0.9 0.9 0.00 0.00 0.00 31 1013.6
20260902214210 103 268 1.7 2.6 0.00 0.00 0.00 30 1013.5
20260902213706 104 278 1.7 2.6 0.00 0.00 0.00 31 1013.7
20260902213201 103 247 1.7 2.6 0.00 0.00 0.00 31 1013.7
20260902212655 102 263 1.7 2.6 0.00 0.00 0.00 32 1013.7
20260902212152 102 204 4.3 6.1 0.00 0.00 0.00 32 1013.6
20260902211648 100 259 0.0 0.9 0.00 0.00 0.00 34 1013.9
20260902211148 97 188 1.7 3.5 0.00 0.00 0.00 37 1013.9
20260902210648 97 240 1.7 2.6 0.00 0.00 0.00 36 1013.9
20260902210143 98 255 0.9 0.9 0.00 0.00 0.00 37 1014.1
20260902205642 99 221 1.7 2.6 0.00 0.00 0.00 36 1014.0
20260902205137 101 236 0.9 0.9 0.00 0.00 0.00 35 1014.0
20260902204632 101 149 3.5 4.3 0.00 0.00 0.00 35 1014.1
20260902204126 100 269 1.7 2.6 0.00 0.00 0.00 35 1014.3
20260902203622 99 202 1.7 3.5 0.00 0.00 0.00 37 1014.3
20260902203122 102 153 4.3 6.1 0.00 0.00 0.00 34 1014.4
20260902202617 102 179 6.1 8.7 0.00 0.00 0.00 35 1014.3
20260902202114 101 201 1.7 2.6 0.00 0.00 0.00 33 1014.4
20260902201609 101 164 3.5 6.1 0.00 0.00 0.00 34 1014.3
20260902201108 99 258 2.6 3.5 0.00 0.00 0.00 35 1014.6
20260902200604 99 193 4.3 7.0 0.00 0.00 0.00 37 1014.5
20260902200059 99 251 0.0 0.0 0.00 0.00 0.00 37 1014.7
20260902195555 99 229 0.0 0.0 0.00 0.00 0.00 37 1014.7
20260902195054 99 170 3.5 4.3 0.00 0.00 0.00 37 1015.0
20260902194553 99 181 3.5 8.7 0.00 0.00 0.00 37 1015.2
20260902194049 100 163 5.2 7.0 0.00 0.00 0.00 37 1014.9
20260902193545 100 20 2.6 3.5 0.00 0.00 0.00 36 1015.0
20260902193044 100 166 7.8 9.6 0.00 0.00 0.00 36 1015.1
20260902192543 98 260 2.6 3.5 0.00 0.00 0.00 39 1015.1
20260902192042 100 219 3.5 4.3 0.00 0.00 0.00 36 1015.2
20260902191537 99 201 2.6 6.1 0.00 0.00 0.00 37 1015.4
20260902191032 100 226 4.3 4.3 0.00 0.00 0.00 36 1015.3
20260902190528 99 202 4.3 6.1 0.00 0.00 0.00 38 1015.6
20260902190023 98 207 2.6 3.5 0.00 0.00 0.00 38 1015.6
20260902185519 98 208 3.5 4.3 0.00 0.00 0.00 38 1015.7
20260902185014 98 240 1.7 3.5 0.00 0.00 0.00 38 1015.6
20260902184509 99 183 5.2 7.0 0.00 0.00 0.00 36 1015.8
20260902184004 99 244 3.5 4.3 0.00 0.00 0.00 37 1016.1
20260902183501 98 142 3.5 4.3 0.00 0.00 0.00 38 1015.9
20260902182957 97 212 1.7 2.6 0.00 0.00 0.00 39 1015.9
20260902182452 97 148 5.2 7.0 0.00 0.00 0.00 40 1016.4
20260902181948 97 99 5.2 7.0 0.00 0.00 0.00 40 1016.2
20260902181444 97 163 4.3 6.1 0.00 0.00 0.00 39 1016.3
20260902180938 99 206 5.2 6.1 0.00 0.00 0.00 39 1016.4
20260902180434 99 280 1.7 2.6 0.00 0.00 0.00 39 1016.5
20260902175930 99 159 2.6 3.5 0.00 0.00 0.00 38 1016.5
20260902175424 99 243 2.6 3.5 0.00 0.00 0.00 38 1016.7
20260902174920 97 278 2.6 3.5 0.00 0.00 0.00 40 1016.6
20260902174417 98 231 2.6 3.5 0.00 0.00 0.00 39 1016.8
20260902173912 97 302 1.7 2.6 0.00 0.00 0.00 40 1016.8
20260902173411 96 188 2.6 3.5 0.00 0.00 0.00 42 1017.0
20260902172906 96 238 3.5 4.3 0.00 0.00 0.00 42 1017.1
20260902172406 97 205 3.5 3.5 0.00 0.00 0.00 42 1017.1
20260902171901 97 211 4.3 4.3 0.00 0.00 0.00 42 1017.1
20260902171356 96 243 1.7 2.6 0.00 0.00 0.00 44 1017.3
20260902170852 96 199 0.9 0.9 0.00 0.00 0.00 44 1017.6
20260902170347 96 331 1.7 2.6 0.00 0.00 0.00 43 1017.3
20260902165843 96 205 1.7 2.6 0.00 0.00 0.00 44 1017.4
20260902165342 96 203 3.5 4.3 0.00 0.00 0.00 44 1017.6
20260902164842 95 258 0.9 0.9 0.00 0.00 0.00 44 1017.6
20260902164337 95 189 6.1 7.0 0.00 0.00 0.00 44 1017.6
20260902163836 96 235 1.7 2.6 0.00 0.00 0.00 46 1017.8
20260902163331 94 262 0.9 0.9 0.00 0.00 0.00 47 1017.7
20260902162830 93 182 3.5 4.3 0.00 0.00 0.00 48 1017.7
20260902162325 93 129 1.7 3.5 0.00 0.00 0.00 49 1017.8
20260902161824 93 197 1.7 2.6 0.00 0.00 0.00 49 1018.0
20260902161320 92 170 6.1 7.0 0.00 0.00 0.00 50 1017.9
20260902160816 93 234 5.2 7.0 0.00 0.00 0.00 48 1017.9
20260902160311 93 236 2.6 3.5 0.00 0.00 0.00 49 1017.9
20260902155809 91 111 4.3 6.1 0.00 0.00 0.00 51 1017.9
20260902155308 90 250 4.3 4.3 0.00 0.00 0.00 52 1017.9
20260902154803 91 201 7.0 7.0 0.00 0.00 0.00 53 1017.9
20260902154259 91 207 6.1 9.6 0.00 0.00 0.00 53 1017.9
20260902153758 91 225 5.2 7.0 0.00 0.00 0.00 52 1018.1
20260902153252 91 138 3.5 4.3 0.00 0.00 0.00 54 1017.8
20260902152748 91 180 1.7 4.3 0.00 0.00 0.00 54 1018.0
20260902152245 89 192 2.6 3.5 0.00 0.00 0.00 56 1018.2
20260902151744 87 280 0.9 0.9 0.00 0.00 0.00 59 1018.0
20260902151240 87 178 3.5 3.5 0.00 0.00 0.00 59 1018.2
20260902150734 88 179 1.7 2.6 0.00 0.00 0.00 59 1018.0
20260902150231 88 257 0.0 0.9 0.00 0.00 0.00 58 1017.9
20260902145724 88 257 1.7 2.6 0.00 0.00 0.00 58 1017.9
20260902145219 86 286 2.6 3.5 0.00 0.00 0.00 61 1018.0
20260902144715 86 209 1.7 2.6 0.00 0.00 0.00 62 1017.9
20260902144210 85 240 2.6 3.5 0.00 0.00 0.00 63 1018.0
20260902143706 84 170 2.6 3.5 0.00 0.00 0.00 64 1018.1
20260902143201 83 123 3.5 3.5 0.00 0.00 0.00 65 1018.1
20260902142656 83 208 1.7 2.6 0.00 0.00 0.00 68 1018.1
20260902142152 83 190 1.7 2.6 0.00 0.00 0.00 69 1018.2
20260902141651 83 205 0.0 0.0 0.00 0.00 0.00 68 1018.1
20260902141147 82 229 0.0 0.0 0.00 0.00 0.00 69 1018.0
20260902140643 82 228 0.0 0.0 0.00 0.00 0.00 68 1018.1
20260902140142 82 231 0.0 0.0 0.00 0.00 0.00 70 1018.2
20260902135642 81 258 0.0 0.0 0.00 0.00 0.00 71 1018.2
20260902135137 79 284 0.0 0.0 0.00 0.00 0.00 76 1018.1
20260902134633 79 278 0.0 0.0 0.00 0.00 0.00 77 1018.0
20260902134132 78 258 0.0 0.0 0.00 0.00 0.00 78 1018.0
20260902133627 77 231 0.0 0.0 0.00 0.00 0.00 79 1017.8
20260902133122 77 253 0.0 0.0 0.00 0.00 0.00 81 1017.9
20260902132617 77 215 0.0 0.0 0.00 0.00 0.00 81 1018.0
20260902132112 76 256 0.0 0.0 0.00 0.00 0.00 81 1018.0
20260902131608 76 256 0.0 0.0 0.00 0.00 0.00 82 1018.0
20260902131103 76 257 0.0 0.0 0.00 0.00 0.00 82 1018.0
20260902130559 75 255 0.0 0.0 0.00 0.00 0.00 82 1017.9
20260902130054 75 278 0.0 0.0 0.00 0.00 0.00 83 1018.0
20260902125550 75 256 0.0 0.0 0.00 0.00 0.00 84 1017.8
20260902125045 75 211 0.0 0.0 0.00 0.00 0.00 83 1017.7
20260902124542 75 270 0.0 0.0 0.00 0.00 0.00 85 1017.7
20260902124042 74 271 0.0 0.0 0.00 0.00 0.00 88 1017.8
20260902123538 73 280 0.0 0.0 0.00 0.00 0.00 90 1017.6
20260902123038 72 281 0.0 0.0 0.00 0.00 0.00 90 1017.7
20260902122532 71 269 0.0 0.0 0.00 0.00 0.00 92 1017.6
20260902122028 71 279 0.0 0.0 0.00 0.00 0.00 92 1017.5
20260902121527 70 242 0.0 0.0 0.00 0.00 0.00 92 1017.5
20260902121022 70 246 0.0 0.0 0.00 0.00 0.00 92 1017.6
20260902120519 70 278 0.0 0.0 0.00 0.00 0.00 92 1017.5
20260902120015 70 261 0.0 0.0 0.00 0.00 0.00 92 1017.5
20260902115509 70 288 0.0 0.0 0.00 0.00 0.00 92 1017.1
20260902115006 70 283 0.0 0.0 0.00 0.00 0.00 92 1017.3
20260902114501 70 274 0.0 0.0 0.00 0.00 0.00 92 1017.1
20260902113956 70 286 0.0 0.0 0.00 0.00 0.00 92 1017.2
20260902113452 70 260 0.0 0.0 0.00 0.00 0.00 92 1017.2
20260902112951 70 297 0.0 0.0 0.00 0.00 0.00 92 1017.3
20260902112447 70 271 0.0 0.0 0.00 0.00 0.00 92 1017.0
20260902111943 70 279 0.0 0.0 0.00 0.00 0.00 91 1017.2
20260902111440 70 279 0.0 0.0 0.00 0.00 0.00 91 1016.8
20260902110935 70 279 0.0 0.0 0.00 0.00 0.00 91 1017.2
20260902110431 70 269 0.0 0.0 0.00 0.00 0.00 91 1017.2
20260902105931 70 257 0.0 0.0 0.00 0.00 0.00 91 1016.7
20260902105426 71 267 0.0 0.0 0.00 0.00 0.00 91 1016.9
20260902104921 71 276 0.0 0.0 0.00 0.00 0.00 90 1016.7
20260902104417 71 280 0.0 0.0 0.00 0.00 0.00 90 1016.9
20260902103916 71 282 0.0 0.0 0.00 0.00 0.00 90 1017.0
20260902103411 71 280 0.0 0.0 0.00 0.00 0.00 90 1017.0
20260902102907 71 249 0.0 0.0 0.00 0.00 0.00 89 1016.9
20260902102404 71 249 0.0 0.0 0.00 0.00 0.00 89 1016.9
20260902101900 71 247 0.0 0.0 0.00 0.00 0.00 88 1016.8
20260902101354 71 282 0.0 0.0 0.00 0.00 0.00 88 1017.0
20260902100854 72 291 0.0 0.0 0.00 0.00 0.00 88 1016.8
20260902100353 72 280 0.0 0.0 0.00 0.00 0.00 87 1016.7
20260902095848 72 271 0.0 0.0 0.00 0.00 0.00 87 1016.8
20260902095343 72 277 0.0 0.0 0.00 0.00 0.00 86 1016.7
20260902094842 72 278 0.0 0.0 0.00 0.00 0.00 86 1016.6
20260902094339 73 241 0.0 0.0 0.00 0.00 0.00 85 1016.6
20260902093838 74 238 0.0 0.0 0.00 0.00 0.00 82 1016.7
20260902093333 74 292 0.0 0.0 0.00 0.00 0.00 82 1016.7
20260902092833 74 285 0.0 0.0 0.00 0.00 0.00 82 1016.7
20260902092329 73 297 0.0 0.0 0.00 0.00 0.00 82 1016.6
20260902091828 74 276 0.0 0.0 0.00 0.00 0.00 82 1016.4
20260902091324 73 255 0.0 0.0 0.00 0.00 0.00 84 1016.4
20260902090821 73 289 0.0 0.0 0.00 0.00 0.00 85 1016.4
20260902090320 73 242 0.0 0.0 0.00 0.00 0.00 84 1016.5
20260902085819 73 271 0.0 0.0 0.00 0.00 0.00 85 1016.3
20260902085314 72 262 0.0 0.0 0.00 0.00 0.00 87 1016.4
20260902084810 72 243 0.0 0.0 0.00 0.00 0.00 86 1016.5
20260902084307 73 276 0.0 0.0 0.00 0.00 0.00 85 1016.4
20260902083801 73 273 0.0 0.0 0.00 0.00 0.00 85 1016.4
20260902083255 73 260 0.0 0.0 0.00 0.00 0.00 84 1016.7
20260902082750 73 262 0.0 0.0 0.00 0.00 0.00 83 1016.3
20260902082247 73 285 0.0 0.0 0.00 0.00 0.00 83 1016.5
20260902081743 73 277 0.0 0.0 0.00 0.00 0.00 83 1016.2
20260902081238 74 261 0.0 0.0 0.00 0.00 0.00 82 1016.5
20260902080733 74 257 0.0 0.0 0.00 0.00 0.00 81 1016.5
20260902080231 75 271 0.0 0.0 0.00 0.00 0.00 80 1016.3
20260902075729 75 261 0.0 0.0 0.00 0.00 0.00 79 1016.4
20260902075226 76 271 0.0 0.0 0.00 0.00 0.00 76 1016.7
20260902074725 77 267 0.0 0.0 0.00 0.00 0.00 74 1016.4
20260902074221 78 254 0.0 0.0 0.00 0.00 0.00 73 1016.3
20260902073716 78 238 0.0 0.0 0.00 0.00 0.00 72 1016.3
20260902073212 79 243 0.0 0.0 0.00 0.00 0.00 70 1016.4
20260902072708 78 254 0.0 0.0 0.00 0.00 0.00 70 1016.4